Preview of NWS' New Version of Forecast
This preview is not operational and should not be used for support decisions.

Regional Weather Roundup (RWR)

Issued by National Weather Service (NWS)

                            
000
ASUS44 KJAN 152210
RWRMS 

MISSISSIPPI HOURLY WEATHER ROUNDUP
NATIONAL WEATHER SERVICE JACKSON MS
400 PM CST FRI FEB 15 2019

NOTE: "FAIR: INDICATES FEW OR NO CLOUDS BELOW 12,000 FEET WITH NO
SIGNIFICANT WEATHER AND/OR OBSTRUCTIONS TO VISIBILITY.

MSZ001>002-007>008-010>013-018>021-025>028-034>036-152300-
NORTHWEST MISSISSIPPI
  
CITY           SKY/WX    TMP DP  RH WIND       PRES   REMARKS
BATESVILLE     CLOUDY    54  50  87 NE9       29.75R                  
CLARKSDALE     CLOUDY    52  50  93 NE13      29.73F                  
CLEVELAND      CLOUDY    51  51 100 NE9       29.72F FOG              
GREENWOOD      CLOUDY    65  60  84 SE5       29.73F                  
GREENVILLE     CLOUDY    56  54  93 NE7       29.71F                  
OLIVE BRANCH   CLOUDY    41  41 100 N9        29.80F FOG              
OXFORD         CLOUDY    52  50  93 VRB6      29.79R FOG              
TUNICA           N/A     46  41  81 NE10      29.78F                  
WINONA         CLOUDY    63  60  90 S7        29.73F                  
$$

MSZ003>006-009-014>017-022>024-029>033-037>039-152300-
NORTHEAST MISSISSIPPI
  
CITY           SKY/WX    TMP DP  RH WIND       PRES   REMARKS
ABERDEEN       CLOUDY    63  63 100 SE5       29.78F                  
COLUMBUS AFB   PTSUNNY   64  58  81 S8        29.76F                  
CORINTH        CLOUDY    48  46  93 N8        29.81S                  
GOLDN TRIANGLE CLOUDY    64  60  87 SE9       29.76F                  
STARKVILLE     CLOUDY    64  59  82 S7        29.77F                  
TUPELO         CLOUDY    56  54  93 N6        29.77F FOG              
$$

MSZ040-058-152300-
CENTRAL MISSISSIPPI
  
CITY           SKY/WX    TMP DP  RH WIND       PRES   REMARKS
JACKSON INTL   CLOUDY    68  61  78 S12       29.75F                  
JACKSON HAWKNS PTSUNNY   68  63  84 S10       29.74F                  
MADISON        FAIR      66  64  94 S5        29.74F                  
MERIDIAN KEY   CLOUDY    65  61  87 S9        29.80S                  
MERIDIAN NAS   CLOUDY    66  62  87 S5        29.80F                  
RAYMOND        FAIR      72  64  78 S13       29.73F                  
VICKSBURG VKS  MOCLDY    72  61  68 SW7       29.73R                  
$$

MSZ059>079-152300-
SOUTH MISSISSIPPI
  
CITY           SKY/WX    TMP DP  RH WIND       PRES   REMARKS
HATTIESBURG    LGT RAIN  65  63  93 S8        29.83R FOG              
LAUREL         CLOUDY    64  64 100 S7        29.80F                  
MCCOMB         CLOUDY    69  62  78 S13       29.78S                  
NATCHEZ        FAIR      73  62  68 S13       29.73F                  
PINE BELT      LGT RAIN  64  64 100 S9        29.81S FOG              
$$

MSZ080>082-152300-
COASTAL MISSISSIPPI
  
CITY           SKY/WX    TMP DP  RH WIND       PRES   REMARKS
BAY ST LOUIS   CLOUDY    66  61  82 SW14      29.83F                  
BILOXI         CLOUDY    63  59  88 SW8       29.83F                  
PASCAGOULA     CLOUDY    67  59  75 VRB6      29.84F                  
GULFPORT       CLOUDY    65  59  81 S8        29.83S                  
$$

LAZ007>009-015>016-023>026-152300-
NORTHEAST LOUISIANA
  
CITY           SKY/WX    TMP DP  RH WIND       PRES   REMARKS
BASTROP        CLOUDY    72  60  64 S8        29.69S                  
TALLULAH/VBURG FAIR      72  62  71 S9        29.72S                  
VIDALIA        MOCLDY    71  63  77 S8        29.72S                  
$$